Weather Roundup
Issued by NWS

Home | Current Version | Previous Version | Graphics & Text | Print | Product List | Glossary Off
Versions: 1 2 3 4 5 6 7 8 9 10 11 12 13 14 15 16 17 18 19 20 21 22 23 24 25 26 27 28 29 30 31 32 33 34 35 36 37 38 39 40 41 42 43 44 45 46 47 48 49 50

000
NZUS93 KARX 240459
HRRWXR

CURRENT HOURLY OBSERVATIONS ACROSS
MUCH OF THE UPPER MISSISSIPPI VALLEY
NATIONAL WEATHER SERVICE LA CROSSE WI
1100 PM CST THU NOV 23 2017


...SOUTHEAST MINNESOTA...


CITY           SKY/WX    TMP DP  RH WIND       PRES   REMARKS
ROCHESTER      CLEAR     41  31  67 S18       29.67F
ROCHESTER/MAYO FAIR      44  31  60 S16G23    29.67F
WINONA         PTCLDY    43  30  61 CALM      29.70F
AUSTIN         NOT AVBL
ALBERT LEA     CLOUDY    45  30  57 S12G17    29.67F
DODGE CENTER   CLEAR     43  30  61 S24       29.65F
PRESTON        CLEAR     39  29  67 S17       29.71F WCI  30
OWATONNA       CLEAR     43  32  65 S17       29.64F
FARIBAULT      CLOUDY    43  34  70 S9G16     29.63F
$$

...ELSEWHERE IN MINNESOTA...


CITY           SKY/WX    TMP DP  RH WIND       PRES   REMARKS
MINNEAPOLIS    MOCLDY    48  34  58 S10G18    29.59F
INTNL FALLS    PTCLDY    38  29  70 VRB7      29.29F WCI  33
DULUTH         PTCLDY    37  28  70 SW18      29.45F WCI  27
RED WING       CLOUDY    45  28  53 S6        29.64F
REDWOOD FALLS  CLEAR     48  36  63 SW13      29.55F
MANKATO        CLOUDY    43  32  65 S14       29.61F
WORTHINGTON    CLEAR     48  38  68 SW17      29.62F
FAIRMONT       CLEAR     45  34  65 S15       29.64F
$$

...SOUTHWEST WISCONSIN...


CITY           SKY/WX    TMP DP  RH WIND       PRES   REMARKS
LA CROSSE      CLOUDY    39  27  62 S12       29.74F WCI  32
PRAIRIE DU CHI CLEAR     31  24  76 CALM      29.80F
BOSCOBEL       CLEAR     27  22  81 CALM      29.81F
LONE ROCK      NOT AVBL
PLATTEVILLE    CLEAR     36  29  76 S10       29.83F WCI  28
FORT MC COY    CLEAR     39  27  63 SW3       29.75F
CAMP DOUGLAS   CLOUDY    38  26  60 S5        29.73F WCI  35
MAUSTON-NEW LI CLOUDY    37  26  64 CALM      29.75F
VIROQUA        FAIR      37  29  71 S9        29.75F WCI  30
WIS DELLS      CLEAR     35  24  65 S3        29.78F
$$

...ELSEWHERE IN WISCONSIN...


CITY           SKY/WX    TMP DP  RH WIND       PRES   REMARKS
MILWAUKEE      CLEAR     35  25  66 S5        29.86F WCI  31
MADISON        CLEAR     35  26  69 S7        29.81F WCI  29
GREEN BAY      PTCLDY    32  27  81 SW5       29.76F WCI  27
EAU CLAIRE     NOT AVBL
BLACK RVR FLS  FAIR      36  24  61 S3        29.72F
MEDFORD        PTCLDY    35  24  63 S12       29.67F WCI  27
WAUSAU         CLOUDY    36  24  62 SE8       29.68F WCI  30
WIS RAPIDS     CLOUDY    37  24  59 S7        29.73F WCI  32
MARSHFIELD     CLOUDY    36  23  59 SW10      29.68F WCI  28
RICE LAKE      CLOUDY    38  26  64 S8        29.64F WCI  32
$$

...NORTHEAST IOWA...


CITY           SKY/WX    TMP DP  RH WIND       PRES   REMARKS
WATERLOO       PTCLDY    39  29  67 S8        29.78F WCI  33
DUBUQUE        CLEAR     34  27  75 S10       29.82F WCI  26
DECORAH        CLEAR     39  30  70 S10       29.75F WCI  32
MASON CITY     PTCLDY    39  31  72 S10       29.72F WCI  32
CHARLES CITY   MOCLDY    39  30  70 S10       29.75F WCI  32
OELWEIN        CLOUDY    36  32  87 S12       29.79F WCI  27
$$

...ELSEWHERE IN IOWA...


CITY           SKY/WX    TMP DP  RH WIND       PRES   REMARKS
DES MOINES     CLOUDY    49  35  58 S12       29.79F
IOWA CITY      CLOUDY    33  27  78 CALM      29.86F
FORT DODGE     CLOUDY    47  35  63 S12       29.71F
MARSHALLTOWN   CLOUDY    42  32  67 S8        29.78F
CEDAR RAPIDS   CLEAR     33  28  81 S6        29.82F WCI  28
$$

...NORTHERN ILLINOIS...


CITY           SKY/WX    TMP DP  RH WIND       PRES   REMARKS
CHICAGO-OHARE  CLEAR     36  26  67 SW3       29.89F
CHICAGO-MIDWAY NOT AVBL
MOLINE         NOT AVBL
ROCKFORD       CLEAR     33  25  72 S5        29.89F WCI  29
PEORIA         CLEAR     33  27  78 W3        29.93S
$$

NOTE: "FAIR" INDICATES FEW OR NO CLOUDS BELOW 12,000 FEET WITH NO
SIGNIFICANT WEATHER AND/OR OBSTRUCTIONS TO VISIBILITY. WIND
SPEEDS ARE IN MILES-PER-HOUR.




USA.gov is the U.S. government's official web portal to all federal, state and local government web resources and services.